TimeMST,TemperatureF,Dew PointF,Humidity,Sea Level PressureIn,VisibilityMPH,Wind Direction,Wind SpeedMPH,Gust SpeedMPH,PrecipitationIn,Events,Conditions,WindDirDegrees,DateUTC
12:56 AM,52.0,36.0,54,29.91,-9999.0,North,-9999.0,-,N/A,,Clear,0,2012-11-03 07:56:00
1:56 AM,51.1,37.0,59,29.92,-9999.0,SW,8.1,-,N/A,,Clear,230,2012-11-03 08:56:00
2:56 AM,55.0,37.9,53,29.90,-9999.0,SSW,3.5,-,N/A,,Clear,210,2012-11-03 09:56:00
3:56 AM,54.0,37.9,55,29.91,-9999.0,SSW,3.5,-,N/A,,Clear,200,2012-11-03 10:56:00
4:56 AM,52.0,37.9,59,29.94,-9999.0,SSW,5.8,-,N/A,,Clear,210,2012-11-03 11:56:00
5:56 AM,48.9,37.9,66,29.97,-9999.0,SSW,4.6,-,N/A,,Clear,200,2012-11-03 12:56:00
6:56 AM,53.1,39.9,61,30.17,-9999.0,South,6.9,-,N/A,,Clear,180,2012-11-03 13:56:00
7:56 AM,52.0,39.9,63,30.01,-9999.0,West,4.6,-,N/A,,Clear,260,2012-11-03 14:56:00
8:56 AM,62.1,41.0,46,29.99,-9999.0,Calm,Calm,-,N/A,,Clear,0,2012-11-03 15:56:00
9:56 AM,-9999,-9999,N/A,-9999,-9999.0,North,-9999.0,-,N/A,,Unknown,0,2012-11-03 16:56:00
10:56 AM,70.0,41.0,35,29.97,-9999.0,Variable,5.8,-,N/A,,Partly Cloudy,0,2012-11-03 17:56:00
11:56 AM,-9999,-9999,N/A,-9999,-9999.0,Calm,Calm,-,N/A,,Scattered Clouds,0,2012-11-03 18:56:00
12:56 PM,71.1,39.0,31,29.94,-9999.0,South,9.2,-,N/A,,Overcast,170,2012-11-03 19:56:00
1:56 PM,68.0,37.9,33,29.93,-9999.0,Calm,Calm,-,N/A,,Scattered Clouds,0,2012-11-03 20:56:00
2:56 PM,70.0,35.1,28,29.91,-9999.0,East,3.5,-,N/A,,Partly Cloudy,80,2012-11-03 21:56:00
3:56 PM,71.1,30.9,23,29.91,-9999.0,SE,3.5,-,N/A,,Clear,140,2012-11-03 22:56:00
4:56 PM,68.0,30.9,25,29.91,-9999.0,Calm,Calm,-,N/A,,Clear,0,2012-11-03 23:56:00
5:56 PM,62.1,32.0,32,29.95,-9999.0,South,6.9,-,N/A,,Scattered Clouds,190,2012-11-04 00:56:00
6:56 PM,59.0,33.1,38,29.97,-9999.0,West,6.9,-,N/A,,Clear,260,2012-11-04 01:56:00
7:56 PM,57.9,34.0,41,29.99,-9999.0,SW,8.1,-,N/A,,Unknown,220,2012-11-04 02:56:00
8:56 PM,59.0,32.0,36,29.97,-9999.0,SW,5.8,-,N/A,,Unknown,220,2012-11-04 03:56:00
9:56 PM,57.0,30.9,37,29.96,-9999.0,SSW,5.8,-,N/A,,Clear,210,2012-11-04 04:56:00
10:56 PM,54.0,32.0,43,29.98,-9999.0,SSW,3.5,-,N/A,,Clear,200,2012-11-04 05:56:00
11:56 PM,54.0,30.9,41,29.99,-9999.0,Calm,Calm,-,N/A,,Clear,0,2012-11-04 06:56:00